This is the latest recevied weather packets stored in our database for station/object OK1FET-5. If no packets are shown the sender has not sent any weather packets the latest 10 day(s).
| Time | Temp. | Humidity | Pressure | Rain* | Wind** | Luminosity | Snow |
|---|---|---|---|---|---|---|---|
| 1777642655 | 27.22° C | 31% | 1027.3 hPa | - | - | - | - |
| 1777642359 | 27.22° C | 32% | 1027.4 hPa | - | - | - | - |
| 1777642063 | 27.22° C | 32% | 1027.4 hPa | - | - | - | - |
| 1777641767 | 27.22° C | 32% | 1027.5 hPa | - | - | - | - |
| 1777641471 | 26.67° C | 30% | 1027.4 hPa | - | - | - | - |
| 1777641175 | 27.78° C | 30% | 1027.6 hPa | - | - | - | - |
| 1777640879 | 27.22° C | 29% | 1027.7 hPa | - | - | - | - |
| 1777640582 | 27.22° C | 30% | 1027.7 hPa | - | - | - | - |
| 1777640286 | 27.22° C | 31% | 1027.7 hPa | - | - | - | - |
| 1777639991 | 26.67° C | 30% | 1027.9 hPa | - | - | - | - |
| 1777639695 | 26.67° C | 27% | 1027.9 hPa | - | - | - | - |
| 1777639399 | 26.67° C | 30% | 1028 hPa | - | - | - | - |
| 1777638807 | 26.67° C | 32% | 1028.2 hPa | - | - | - | - |
| 1777638215 | 26.67° C | 31% | 1028.3 hPa | - | - | - | - |
| 1777637623 | 25.56° C | 31% | 1028.3 hPa | - | - | - | - |
| 1777637327 | 25° C | 32% | 1028.4 hPa | - | - | - | - |
| 1777637032 | 26.67° C | 32% | 1028.4 hPa | - | - | - | - |
| 1777636736 | 26.67° C | 31% | 1028.5 hPa | - | - | - | - |
| 1777636440 | 26.11° C | 31% | 1028.5 hPa | - | - | - | - |
| 1777636144 | 26.67° C | 31% | 1028.6 hPa | - | - | - | - |
| 1777635848 | 26.67° C | 32% | 1028.7 hPa | - | - | - | - |
| 1777635256 | 27.22° C | 31% | 1028.7 hPa | - | - | - | - |
| 1777634960 | 27.22° C | 32% | 1028.7 hPa | - | - | - | - |
| 1777634664 | 26.67° C | 30% | 1028.8 hPa | - | - | - | - |
| 1777634368 | 26.67° C | 32% | 1028.8 hPa | - | - | - | - |
* Rain since midnight (hover to see other rain measurements)
** Current wind speed in m/s (hover to see current wind gust speed)